PAVL

Details ICAO PAVL (KVL)
Name KIVALINA
Region USA (Alaska)
Timezone America/Nome (UTC-8.0)
Plans Departing 3
Arriving 2
Stats Elevation 13 ft / 4 m (AMSL)
Location 67.736152° -164.563497°
Runways 1
Magnetic Variation 10.429° E
Sunrise 2018-05-24 11:52:09 UTC / 2018-05-24 03:52:09 Local
Sunset 2018-05-25 10:01:00 UTC / 2018-05-25 02:01:00 Local
Advertisement - Login to hide

Runways

ID Width Length Bearing (true) Bearing (mag) Surface Threshold Offset Overrun Length
12 59 ft / 18 m 3,003 ft / 915 m 137.12° 126.69° Gravel 0 ft / 0 m 0 ft / 0 m
30 59 ft / 18 m 3,003 ft / 915 m 317.13° 306.70° Gravel 0 ft / 0 m 0 ft / 0 m

Map

Weather


0- 5 10 15 20 25 30 35+ Temperature / ° C

Clouds and Precipitation
Forecast for 2018-05-24 18:00 UTC. Updated an hour ago

Ground ~20,000 ft ~40,000 ft Winds

METAR

PAVL 241753Z AUTO 22007KT 10SM OVC011 03/M02 A2976 RMK AO2 SLP077 60000 T00281017 10028 20022 53003 TSNO

TAF

Not found

Frequencies

Recorded 135.80 MHz ASOS
Approach 119.20 MHz ANCHORAGE CNTR
Unicom 122.80 MHz CTAF/UNICOM
Warning: Do not use this data for real-world aviation or navigation. No guarantee of current accuracy is given.